TimeCST,TemperatureF,Dew PointF,Humidity,Sea Level PressureIn,VisibilityMPH,Wind Direction,Wind SpeedMPH,Gust SpeedMPH,PrecipitationIn,Events,Conditions,WindDirDegrees,DateUTC
12:15 AM,60.8,57.2,88,30.05,6.0,SSE,6.9,-,N/A,,Overcast,150,2013-03-09 06:15:00
12:35 AM,60.8,57.2,88,30.04,6.0,SE,6.9,-,N/A,,Overcast,140,2013-03-09 06:35:00
12:55 AM,62.6,59.0,88,30.03,7.0,SE,6.9,-,N/A,,Overcast,130,2013-03-09 06:55:00
1:15 AM,62.6,59.0,88,30.02,7.0,SE,8.1,-,N/A,,Overcast,140,2013-03-09 07:15:00
1:55 AM,62.6,59.0,88,30.01,7.0,SE,10.4,-,N/A,,Overcast,140,2013-03-09 07:55:00
2:15 AM,62.6,59.0,88,30.00,7.0,SE,9.2,-,N/A,,Overcast,140,2013-03-09 08:15:00
2:35 AM,62.6,59.0,88,29.99,7.0,SE,10.4,-,N/A,,Mostly Cloudy,140,2013-03-09 08:35:00
2:55 AM,62.6,59.0,88,29.98,7.0,SE,8.1,-,N/A,,Overcast,140,2013-03-09 08:55:00
3:15 AM,62.6,59.0,88,29.97,7.0,ESE,6.9,-,N/A,,Mostly Cloudy,120,2013-03-09 09:15:00
3:35 AM,62.6,59.0,88,29.96,7.0,SE,8.1,-,N/A,,Overcast,140,2013-03-09 09:35:00
3:55 AM,62.6,59.0,88,29.96,7.0,SSE,8.1,-,N/A,,Overcast,150,2013-03-09 09:55:00
4:15 AM,64.4,59.0,83,29.96,7.0,SSE,8.1,-,N/A,,Overcast,150,2013-03-09 10:15:00
4:35 AM,64.4,59.0,83,29.95,7.0,SE,9.2,-,N/A,,Mostly Cloudy,140,2013-03-09 10:35:00
4:55 AM,64.4,59.0,83,29.96,7.0,SSE,6.9,-,N/A,,Mostly Cloudy,160,2013-03-09 10:55:00
5:15 AM,64.4,59.0,83,29.95,7.0,SE,8.1,-,N/A,,Mostly Cloudy,140,2013-03-09 11:15:00
5:35 AM,64.4,59.0,83,29.95,7.0,SE,4.6,-,N/A,,Partly Cloudy,140,2013-03-09 11:35:00
5:55 AM,64.4,60.8,88,29.95,5.0,SE,8.1,-,N/A,,Scattered Clouds,140,2013-03-09 11:55:00
6:15 AM,64.4,60.8,88,29.95,5.0,SE,9.2,-,N/A,,Partly Cloudy,140,2013-03-09 12:15:00
6:35 AM,64.4,60.8,88,29.94,6.0,SE,10.4,-,N/A,,Partly Cloudy,140,2013-03-09 12:35:00
6:55 AM,64.4,60.8,88,29.95,5.0,SSE,8.1,-,N/A,,Partly Cloudy,160,2013-03-09 12:55:00
7:15 AM,64.4,62.6,94,29.94,5.0,South,11.5,-,N/A,,Partly Cloudy,170,2013-03-09 13:15:00
7:35 AM,64.4,62.6,94,29.95,5.0,South,11.5,16.1,N/A,,Partly Cloudy,180,2013-03-09 13:35:00
7:55 AM,64.4,60.8,88,29.95,5.0,South,11.5,-,N/A,,Clear,180,2013-03-09 13:55:00
8:15 AM,66.2,62.6,88,29.95,5.0,South,11.5,17.3,N/A,,Clear,180,2013-03-09 14:15:00
8:35 AM,66.2,62.6,88,29.95,5.0,South,11.5,18.4,N/A,,Clear,180,2013-03-09 14:35:00
8:55 AM,66.2,62.6,88,29.96,6.0,South,13.8,20.7,N/A,,Clear,180,2013-03-09 14:55:00
9:15 AM,66.2,62.6,88,29.97,6.0,South,12.7,17.3,N/A,,Clear,170,2013-03-09 15:15:00
9:35 AM,68.0,62.6,83,29.96,6.0,SSE,10.4,19.6,N/A,,Clear,160,2013-03-09 15:35:00
9:55 AM,68.0,62.6,83,29.95,6.0,South,12.7,24.2,N/A,,Clear,170,2013-03-09 15:55:00
10:15 AM,69.8,62.6,78,29.95,7.0,South,18.4,25.3,N/A,,Clear,180,2013-03-09 16:15:00
10:35 AM,71.6,62.6,73,29.94,6.0,South,18.4,31.1,N/A,,Mostly Cloudy,180,2013-03-09 16:35:00
10:55 AM,71.6,60.8,69,29.95,7.0,South,15.0,23.0,N/A,,Overcast,180,2013-03-09 16:55:00
11:15 AM,71.6,60.8,69,29.94,8.0,South,16.1,27.6,N/A,,Overcast,190,2013-03-09 17:15:00
11:35 AM,71.6,60.8,69,29.93,8.0,South,20.7,29.9,N/A,,Overcast,180,2013-03-09 17:35:00
11:55 AM,71.6,60.8,69,29.92,8.0,South,19.6,31.1,N/A,,Overcast,180,2013-03-09 17:55:00
12:15 PM,71.6,60.8,69,29.91,9.0,South,19.6,28.8,N/A,,Overcast,180,2013-03-09 18:15:00
12:35 PM,71.6,60.8,69,29.90,8.0,South,20.7,27.6,N/A,,Overcast,180,2013-03-09 18:35:00
12:55 PM,71.6,62.6,73,29.89,7.0,South,25.3,31.1,N/A,,Overcast,180,2013-03-09 18:55:00
1:15 PM,71.6,62.6,73,29.88,7.0,South,13.8,32.2,N/A,,Overcast,180,2013-03-09 19:15:00
1:35 PM,71.6,60.8,69,29.86,8.0,SSE,18.4,26.5,N/A,,Overcast,160,2013-03-09 19:35:00
1:55 PM,73.4,60.8,65,29.83,7.0,SSE,23.0,31.1,N/A,,Mostly Cloudy,160,2013-03-09 19:55:00
2:15 PM,73.4,60.8,65,29.83,8.0,South,20.7,34.5,N/A,,Overcast,180,2013-03-09 20:15:00
2:35 PM,73.4,60.8,65,29.84,7.0,SSE,15.0,28.8,N/A,,Overcast,160,2013-03-09 20:35:00
2:55 PM,71.6,60.8,69,29.83,7.0,South,20.7,29.9,N/A,,Mostly Cloudy,180,2013-03-09 20:55:00
3:15 PM,73.4,59.0,61,29.83,8.0,South,19.6,26.5,N/A,,Mostly Cloudy,170,2013-03-09 21:15:00
3:35 PM,71.6,59.0,64,29.83,8.0,South,15.0,32.2,N/A,,Mostly Cloudy,170,2013-03-09 21:35:00
3:55 PM,71.6,59.0,64,29.81,8.0,South,21.9,31.1,N/A,,Overcast,170,2013-03-09 21:55:00
4:15 PM,71.6,59.0,64,29.80,9.0,South,21.9,36.8,N/A,,Mostly Cloudy,180,2013-03-09 22:15:00
4:35 PM,71.6,59.0,64,29.80,8.0,SSE,18.4,33.4,N/A,,Mostly Cloudy,160,2013-03-09 22:35:00
4:55 PM,71.6,59.0,64,29.79,7.0,South,24.2,32.2,N/A,,Overcast,190,2013-03-09 22:55:00
5:15 PM,69.8,59.0,68,29.80,8.0,South,16.1,31.1,N/A,,Mostly Cloudy,190,2013-03-09 23:15:00
5:35 PM,69.8,60.8,73,29.80,8.0,South,16.1,26.5,N/A,,Overcast,180,2013-03-09 23:35:00
5:55 PM,69.8,60.8,73,29.79,8.0,South,18.4,27.6,N/A,,Overcast,180,2013-03-09 23:55:00
6:15 PM,68.0,60.8,78,29.77,7.0,South,19.6,28.8,N/A,,Mostly Cloudy,170,2013-03-10 00:15:00
6:35 PM,68.0,60.8,78,29.78,8.0,SSE,13.8,25.3,N/A,,Overcast,160,2013-03-10 00:35:00
6:55 PM,68.0,62.6,83,29.80,7.0,SSE,16.1,21.9,N/A,,Overcast,160,2013-03-10 00:55:00
7:15 PM,68.0,62.6,83,29.81,7.0,South,18.4,23.0,N/A,,Overcast,180,2013-03-10 01:15:00
7:35 PM,68.0,62.6,83,29.81,7.0,SSE,10.4,23.0,N/A,,Overcast,160,2013-03-10 01:35:00
7:55 PM,68.0,62.6,83,29.79,7.0,South,12.7,23.0,N/A,,Overcast,170,2013-03-10 01:55:00
8:15 PM,68.0,62.6,83,29.79,7.0,South,16.1,23.0,N/A,,Overcast,180,2013-03-10 02:15:00
8:35 PM,68.0,62.6,83,29.77,6.0,South,19.6,27.6,N/A,,Overcast,170,2013-03-10 02:35:00
8:55 PM,68.0,62.6,83,29.77,6.0,South,17.3,25.3,N/A,,Overcast,170,2013-03-10 02:55:00
9:15 PM,68.0,62.6,83,29.77,6.0,South,19.6,27.6,N/A,,Overcast,170,2013-03-10 03:15:00
9:35 PM,68.0,62.6,83,29.75,6.0,South,18.4,26.5,N/A,,Mostly Cloudy,170,2013-03-10 03:35:00
9:55 PM,68.0,62.6,83,29.76,6.0,South,17.3,27.6,N/A,,Overcast,170,2013-03-10 03:55:00
10:15 PM,68.0,62.6,83,29.75,5.0,SSE,16.1,23.0,N/A,,Overcast,160,2013-03-10 04:15:00
10:35 PM,66.2,62.6,88,29.78,5.0,SSE,16.1,21.9,N/A,,Overcast,160,2013-03-10 04:35:00
10:55 PM,66.2,62.6,88,29.77,5.0,SSE,12.7,18.4,N/A,,Overcast,160,2013-03-10 04:55:00
11:15 PM,66.2,62.6,88,29.75,5.0,SSE,17.3,-,N/A,,Overcast,160,2013-03-10 05:15:00
11:35 PM,66.2,64.4,94,29.77,5.0,SSE,16.1,21.9,N/A,,Overcast,160,2013-03-10 05:35:00
11:55 PM,66.2,64.4,94,29.76,5.0,SSE,16.1,21.9,N/A,,Overcast,160,2013-03-10 05:55:00